TimeCDT,TemperatureF,Dew PointF,Humidity,Sea Level PressureIn,VisibilityMPH,Wind Direction,Wind SpeedMPH,Gust SpeedMPH,PrecipitationIn,Events,Conditions,WindDirDegrees,DateUTC
12:13 AM,62.6,59.0,88,29.86,10.0,SE,4.6,-,N/A,Rain,Light Rain,140,2013-05-17 05:13:00
12:32 AM,62.6,59.0,88,29.88,10.0,SSE,3.5,-,N/A,Rain,Light Rain,160,2013-05-17 05:32:00
12:52 AM,62.6,59.0,88,29.88,7.0,SSE,6.9,-,0.04,Rain,Heavy Rain,150,2013-05-17 05:52:00
1:12 AM,62.6,59.0,88,29.89,4.0,SSE,4.6,-,0.10,Rain-Thunderstorm,Heavy Thunderstorms and Rain,150,2013-05-17 06:12:00
1:32 AM,62.6,59.0,88,29.89,4.0,SE,3.5,-,0.18,Rain,Heavy Rain,130,2013-05-17 06:32:00
1:52 AM,60.8,59.0,94,29.88,4.0,SE,3.5,-,0.27,Rain-Thunderstorm,Rain,140,2013-05-17 06:52:00
2:12 AM,60.8,59.0,94,29.89,3.0,Calm,Calm,-,0.06,Rain,Rain,0,2013-05-17 07:12:00
2:32 AM,60.8,59.0,94,29.88,2.5,ESE,6.9,-,0.16,Rain-Thunderstorm,Rain,110,2013-05-17 07:32:00
2:53 AM,60.8,59.0,94,29.88,4.0,ESE,8.1,-,0.19,Rain-Thunderstorm,Light Thunderstorms and Rain,110,2013-05-17 07:53:00
3:12 AM,60.8,59.0,94,29.87,5.0,ESE,8.1,-,0.04,Rain-Thunderstorm,Light Thunderstorms and Rain,110,2013-05-17 08:12:00
3:32 AM,60.8,59.0,94,29.87,7.0,East,6.9,-,0.07,Rain-Thunderstorm,Light Thunderstorms and Rain,100,2013-05-17 08:32:00
3:53 AM,60.8,59.0,94,29.87,10.0,ESE,10.4,-,0.07,,Light Drizzle,120,2013-05-17 08:53:00
4:12 AM,60.8,59.0,94,29.87,10.0,ESE,11.5,-,N/A,Thunderstorm,Unknown,110,2013-05-17 09:12:00
4:32 AM,60.8,59.0,94,29.87,7.0,ESE,11.5,-,N/A,Thunderstorm,Scattered Clouds,120,2013-05-17 09:32:00
4:52 AM,60.8,59.0,94,29.88,10.0,East,11.5,-,N/A,,Mostly Cloudy,100,2013-05-17 09:52:00
5:12 AM,60.8,59.0,94,29.88,7.0,ESE,10.4,-,N/A,,Mostly Cloudy,110,2013-05-17 10:12:00
5:32 AM,60.8,59.0,94,29.88,7.0,ESE,10.4,-,N/A,,Mostly Cloudy,110,2013-05-17 10:32:00
5:52 AM,60.8,59.0,94,29.88,7.0,ESE,9.2,-,N/A,,Overcast,110,2013-05-17 10:52:00
6:12 AM,60.8,59.0,94,29.88,5.0,ESE,9.2,-,N/A,,Mostly Cloudy,120,2013-05-17 11:12:00
6:33 AM,60.8,59.0,94,29.88,10.0,SE,10.4,-,N/A,,Scattered Clouds,130,2013-05-17 11:33:00
7:12 AM,62.6,59.0,88,29.90,10.0,SE,12.7,-,N/A,,Mostly Cloudy,140,2013-05-17 12:12:00
7:32 AM,62.6,59.0,88,29.90,10.0,SE,10.4,-,0.01,,Overcast,140,2013-05-17 12:32:00
7:52 AM,62.6,59.0,88,29.90,10.0,SE,12.7,-,0.01,,Mostly Cloudy,140,2013-05-17 12:52:00
8:12 AM,62.6,59.0,88,29.91,10.0,SE,13.8,20.7,N/A,,Mostly Cloudy,140,2013-05-17 13:12:00
8:32 AM,64.4,59.0,83,29.91,10.0,SSE,13.8,-,N/A,,Mostly Cloudy,150,2013-05-17 13:32:00
8:52 AM,64.4,59.0,83,29.91,10.0,SE,13.8,-,N/A,,Scattered Clouds,140,2013-05-17 13:52:00
9:12 AM,66.2,59.0,78,29.92,10.0,SSE,15.0,20.7,N/A,,Clear,150,2013-05-17 14:12:00
9:32 AM,66.2,60.8,83,29.92,10.0,SE,13.8,-,N/A,,Scattered Clouds,140,2013-05-17 14:32:00
9:52 AM,68.0,60.8,78,29.92,10.0,SE,13.8,-,N/A,,Mostly Cloudy,140,2013-05-17 14:52:00
10:13 AM,68.0,60.8,78,29.92,10.0,SSE,16.1,20.7,N/A,,Scattered Clouds,150,2013-05-17 15:13:00
10:32 AM,69.8,60.8,73,29.91,10.0,SE,18.4,24.2,N/A,,Scattered Clouds,140,2013-05-17 15:32:00
10:52 AM,69.8,60.8,73,29.91,10.0,SE,16.1,-,N/A,,Clear,140,2013-05-17 15:52:00
11:13 AM,69.8,60.8,73,29.91,10.0,SE,16.1,-,N/A,,Scattered Clouds,140,2013-05-17 16:13:00
11:32 AM,69.8,60.8,73,29.91,10.0,SE,13.8,-,N/A,,Mostly Cloudy,140,2013-05-17 16:32:00
11:52 AM,71.6,62.6,73,29.91,10.0,SE,15.0,20.7,N/A,,Scattered Clouds,130,2013-05-17 16:52:00
12:13 PM,71.6,62.6,73,29.91,10.0,ESE,12.7,18.4,N/A,,Mostly Cloudy,110,2013-05-17 17:13:00
12:32 PM,73.4,62.6,69,29.91,10.0,SSE,13.8,17.3,N/A,,Mostly Cloudy,150,2013-05-17 17:32:00
12:52 PM,73.4,62.6,69,29.91,10.0,SE,13.8,-,N/A,,Mostly Cloudy,140,2013-05-17 17:52:00
1:13 PM,73.4,62.6,69,29.91,10.0,SE,10.4,16.1,N/A,,Overcast,140,2013-05-17 18:13:00
1:32 PM,73.4,62.6,69,29.91,10.0,SE,10.4,-,N/A,,Overcast,130,2013-05-17 18:32:00
2:13 PM,75.2,64.4,69,29.90,7.0,ESE,13.8,17.3,N/A,,Mostly Cloudy,120,2013-05-17 19:13:00
2:32 PM,75.2,64.4,69,29.89,10.0,ESE,15.0,-,N/A,,Scattered Clouds,120,2013-05-17 19:32:00
2:52 PM,77.0,64.4,65,29.89,10.0,SE,11.5,-,N/A,,Mostly Cloudy,140,2013-05-17 19:52:00
3:13 PM,75.2,64.4,69,29.88,7.0,ESE,15.0,-,N/A,,Mostly Cloudy,120,2013-05-17 20:13:00
3:32 PM,77.0,64.4,65,29.87,7.0,ESE,17.3,23.0,N/A,,Scattered Clouds,120,2013-05-17 20:32:00
3:52 PM,75.2,64.4,69,29.87,7.0,ESE,15.0,20.7,N/A,,Mostly Cloudy,120,2013-05-17 20:52:00
4:12 PM,75.2,66.2,73,29.87,7.0,ESE,17.3,23.0,N/A,,Mostly Cloudy,120,2013-05-17 21:12:00
4:32 PM,75.2,64.4,69,29.86,7.0,ESE,17.3,-,N/A,,Mostly Cloudy,110,2013-05-17 21:32:00
4:52 PM,75.2,66.2,73,29.87,7.0,SE,17.3,21.9,N/A,Thunderstorm,Mostly Cloudy,130,2013-05-17 21:52:00
5:12 PM,73.4,62.6,69,29.88,10.0,ESE,12.7,-,N/A,Thunderstorm,Thunderstorm,120,2013-05-17 22:12:00
5:32 PM,73.4,62.6,69,29.87,1.0,ESE,15.0,19.6,N/A,Thunderstorm,Unknown,120,2013-05-17 22:32:00
5:52 PM,71.6,62.6,73,29.88,10.0,ESE,13.8,-,N/A,Rain-Thunderstorm,Light Thunderstorms and Rain,120,2013-05-17 22:52:00
6:12 PM,71.6,64.4,78,29.89,7.0,East,16.1,-,N/A,Thunderstorm,Unknown,90,2013-05-17 23:12:00
6:32 PM,69.8,64.4,83,29.89,5.0,East,11.5,-,N/A,Rain-Thunderstorm,Light Thunderstorms and Rain,90,2013-05-17 23:32:00
6:52 PM,69.8,64.4,83,29.89,1.8,SE,8.1,-,0.21,Rain-Thunderstorm,Heavy Thunderstorms and Rain,130,2013-05-17 23:52:00
7:12 PM,69.8,64.4,83,29.88,2.5,SE,11.5,-,0.10,Rain-Thunderstorm,Thunderstorms and Rain,140,2013-05-18 00:12:00
7:32 PM,69.8,64.4,83,29.87,3.0,SSE,9.2,-,0.13,Rain-Thunderstorm,Light Thunderstorms and Rain,150,2013-05-18 00:32:00
7:52 PM,69.8,64.4,83,29.86,5.0,SE,9.2,-,0.13,,Haze,130,2013-05-18 00:52:00
8:12 PM,69.8,64.4,83,29.86,7.0,SE,9.2,-,N/A,,Clear,130,2013-05-18 01:12:00
8:33 PM,68.0,64.4,88,29.87,5.0,ESE,8.1,-,N/A,,Clear,110,2013-05-18 01:33:00
8:52 PM,68.0,62.6,83,29.88,7.0,SE,6.9,-,N/A,,Clear,130,2013-05-18 01:52:00
9:12 PM,68.0,62.6,83,29.88,7.0,ESE,9.2,-,N/A,,Clear,120,2013-05-18 02:12:00
9:33 PM,66.2,62.6,88,29.90,4.0,ESE,6.9,-,N/A,,Clear,120,2013-05-18 02:33:00
9:52 PM,66.2,62.6,88,29.91,4.0,ESE,9.2,-,N/A,,Clear,120,2013-05-18 02:52:00
10:12 PM,66.2,62.6,88,29.90,5.0,ESE,10.4,-,N/A,,Clear,120,2013-05-18 03:12:00
10:32 PM,64.4,62.6,94,29.91,5.0,ESE,11.5,-,N/A,,Clear,120,2013-05-18 03:32:00
10:52 PM,64.4,60.8,88,29.91,7.0,ESE,10.4,-,N/A,,Clear,120,2013-05-18 03:52:00
11:13 PM,64.4,60.8,88,29.91,7.0,ESE,11.5,-,N/A,,Clear,120,2013-05-18 04:13:00
11:32 PM,64.4,60.8,88,29.91,7.0,SE,10.4,-,N/A,,Clear,130,2013-05-18 04:32:00
11:52 PM,64.4,60.8,88,29.91,7.0,SE,10.4,-,N/A,,Scattered Clouds,130,2013-05-18 04:52:00